Location: Aranbee
(34.0885°N, 118.2342°W)
Time: 18:19:29
(UTC+00:00)

Vanguard 2 Rocket - All Passes

Search period start: 04 December 2020 00:00
Search period end: 14 December 2020 00:00
Orbit: 553 x 3326 km, 32.9° (Epoch: 04 December)

Date Brightness Start Highest point End Pass type
(mag) Time Alt. Az. Time Alt. Az. Time Alt. Az.
04 Dec - 09:49:57 10° SE 09:52:43 11° SE 09:55:38 10° ESE visible
04 Dec - 11:52:39 10° SSW 12:06:34 42° SE 12:24:32 10° E visible
04 Dec - 14:05:29 10° WSW 14:23:39 74° SSE 14:43:20 10° E visible
04 Dec - 16:22:20 10° W 16:42:56 87° S 16:59:49 10° E daylight
04 Dec - 18:41:27 10° W 19:01:11 70° SSW 19:14:06 10° ESE daylight
04 Dec - 21:02:16 10° W 21:15:56 32° SW 21:24:56 10° SSE daylight
05 Dec - 10:54:13 10° S 11:05:43 30° SE 11:20:56 10° E visible
05 Dec - 13:05:07 10° SW 13:21:24 65° SSE 13:41:23 10° ENE visible
05 Dec - 15:20:30 10° W 15:40:13 86° S 15:58:51 10° E daylight
05 Dec - 17:38:45 10° W 17:59:22 79° SSW 18:14:16 10° ESE daylight
05 Dec - 19:58:40 10° WNW 20:15:40 46° SW 20:26:38 10° SSE daylight
05 Dec - 22:24:40 10° WSW 22:28:20 11° SW 22:31:36 10° SW daylight
06 Dec - 09:57:09 10° SSE 10:05:26 19° SE 10:15:53 10° E visible
06 Dec - 12:05:25 10° SW 12:19:41 53° SSE 12:38:54 10° ENE visible
06 Dec - 14:19:17 10° WSW 14:37:29 82° SSE 14:57:24 10° E visible
06 Dec - 16:36:25 10° W 16:56:59 85° S 17:13:53 10° ESE daylight
06 Dec - 18:55:31 10° WNW 19:14:44 59° SSW 19:27:39 10° SE daylight
06 Dec - 21:17:34 10° W 21:28:44 22° SW 21:36:53 10° S daylight
07 Dec - 11:06:26 10° SSW 11:18:35 41° SE 11:35:48 10° E visible
07 Dec - 13:18:40 10° WSW 13:35:01 74° SSE 13:55:26 10° E visible
07 Dec - 15:34:34 10° W 15:54:17 87° S 16:12:57 10° E daylight
07 Dec - 17:52:47 10° W 18:13:08 71° SSW 18:28:02 10° ESE daylight
07 Dec - 20:13:11 10° W 20:28:40 35° SW 20:39:21 10° SSE daylight
08 Dec - 10:08:20 10° S 10:18:09 28° SE 10:31:55 10° E visible
08 Dec - 12:18:41 10° SW 12:33:02 65° SSE 12:53:01 10° ENE visible
08 Dec - 14:33:15 10° W 14:51:29 86° S 15:11:29 10° E daylight
08 Dec - 16:50:29 10° W 17:10:56 79° SSW 17:27:49 10° ESE daylight
08 Dec - 19:09:43 10° WNW 19:27:59 47° SW 19:40:48 10° SSE daylight
08 Dec - 21:34:48 10° W 21:41:26 14° SW 21:47:00 10° SSW daylight
09 Dec - 09:11:41 10° SSE 09:18:15 17° SE 09:26:37 10° E visible
09 Dec - 11:19:20 10° SW 11:31:41 52° SE 11:50:09 10° ENE visible
09 Dec - 13:32:31 10° WSW 13:48:52 82° SSE 14:09:31 10° E visible
09 Dec - 15:48:40 10° W 16:08:20 84° S 16:27:00 10° ESE daylight
09 Dec - 18:06:51 10° WNW 18:26:38 60° SSW 18:41:30 10° SE daylight
09 Dec - 20:28:26 10° W 20:41:28 24° SW 20:51:15 10° S daylight
10 Dec - 10:20:39 10° SSW 10:31:02 39° SE 10:46:48 10° E visible
10 Dec - 12:32:19 10° WSW 12:46:40 75° SSE 13:07:04 10° E visible
10 Dec - 14:47:20 10° W 15:05:33 87° S 15:25:34 10° E daylight
10 Dec - 17:04:33 10° W 17:24:41 70° SSW 17:41:32 10° ESE daylight
10 Dec - 19:24:14 10° W 19:40:59 36° SW 19:53:24 10° SSE daylight
11 Dec - 09:22:49 10° S 09:30:59 26° SE 09:42:48 10° E visible
11 Dec - 11:32:41 10° SW 11:45:04 64° SSE 12:04:16 10° ENE visible
11 Dec - 13:46:31 10° W 14:02:51 86° S 14:23:35 10° E visible
11 Dec - 16:02:45 10° W 16:22:15 79° SSW 16:40:53 10° ESE daylight
11 Dec - 18:21:04 10° WNW 18:39:53 48° SW 18:54:33 10° SSE daylight
11 Dec - 20:45:22 10° W 20:54:10 16° SW 21:01:33 10° SSW daylight
12 Dec - 08:26:42 10° SSE 08:31:27 14° SE 08:37:19 10° E visible
12 Dec - 10:33:37 10° SW 10:44:09 51° SE 11:01:08 10° ENE visible
12 Dec - 12:46:12 10° WSW 13:00:32 82° SSE 13:21:06 10° E visible
12 Dec - 15:01:26 10° W 15:19:35 84° S 15:39:35 10° ESE daylight
12 Dec - 17:18:38 10° WNW 17:38:11 60° SSW 17:54:54 10° SE daylight
12 Dec - 19:39:28 10° W 19:53:48 26° SW 20:05:12 10° S daylight
13 Dec - 09:35:10 10° SSW 09:43:53 36° SE 09:57:43 10° E visible
13 Dec - 11:46:23 10° WSW 11:58:44 74° SSE 12:18:17 10° E visible
13 Dec - 14:00:36 10° W 14:16:56 87° S 14:37:39 10° E visible
13 Dec - 16:16:48 10° W 16:36:00 70° SSW 16:54:31 10° SE daylight
13 Dec - 18:35:37 10° W 18:52:54 37° SW 19:07:01 10° SSE daylight
